Tracking 25378 objects as of 22-Jan-2022
HD Live streaming from Space Station
objects crossing your sky now

USA 143

Track USA 143 now!
10-day predictions
USA 143 is classified as:


NORAD ID: 25724
Int'l Code: 1999-023A
Perigee: 1,113.8 km
Apogee: 5,146.1 km
Inclination: 28.3 °
Period: 153.6 minutes
Semi major axis: 9500 km
RCS: Unknown
Launch date: April 30, 1999
Source: United States (US)
Launch site: AIR FORCE EASTERN TEST RANGE (AFETR)
aabbcc
Your satellite tracking list
Your tracking list is empty




NASA's NSSDC Master Catalog

Two Line Element Set (TLE):
1 25724U 99023A   22004.70633946 0.00000050  00000-0  64973-3 0    09
2 25724  28.2620 269.2249 2122050 345.2791  14.7204  9.37461277    03
Source of the keplerian elements: McCants